Weather History for KHCD - November, 2011

Change the Weather History Date:

Tuesday, November 8, 2011

  Actual Average Record
Temperature  
Mean Temperature 41 °F -  
Max Temperature 49 °F 46 °F 82 °F (1999)
Min Temperature 33 °F 27 °F 0 °F (1991)
Degree Days  
Heating Degree Days 24    
Moisture  
Dew Point 27 °F    
Average Humidity 63    
Maximum Humidity 82    
Minimum Humidity 39    
Precipitation  
Precipitation 0.00 in - - ()
Sea Level Pressure  
Sea Level Pressure 30.17 in    
Wind  
Wind Speed 3 mph (NNE)    
Max Wind Speed 10 mph    
Max Gust Speed -    
Visibility 10 miles    
Events      
Averages and records for this station are not official NWS values.
T = Trace of Precipitation, MM = Missing Value Source: NWS Daily Summary

Daily Weather History Graph

Daily Weather History Graph

Search for Another Location

Airport or City:

Trip Planner

Search our weather history database for the weather conditions in past years. The results will help you decide how hot, cold, wet, or windy it might be!

Date:

Astronomy

Nov. 08, 2011 Rise Set
Actual Time 7:04 AM CST 4:56 PM CST
Civil Twilight 6:33 AM CST 5:28 PM CST
Nautical Twilight 5:58 AM CST 6:03 PM CST
Astronomical Twilight 5:24 AM CST 6:37 PM CST
Moon 3:39 PM CST (11/8) 5:01 AM CST (11/8)
Length of Visible Light 10h 54m
Length of Day
9h 52m
Waxing Gibbous, 96% of the Moon is Illuminated
Nov 8
Waxing Gibbous
Nov 10
Full
Nov 18
Last Quarter
Nov 25
New
Dec 2
First Quarter

Hourly Weather History & Observations

Time (CST) Temp. Windchill Dew Point Humidity Pressure Visibility Wind Dir Wind Speed Gust Speed Precip Events Conditions
12:13 AM 35.2 °F - 28.2 °F 76% 30.20 in 10.0 mi Calm Calm - N/A   Mostly Cloudy
12:33 AM 36.9 °F - 29.1 °F 74% 30.20 in 10.0 mi Calm Calm - N/A   Overcast
12:52 AM 36.9 °F - 29.3 °F 74% 30.19 in 10.0 mi Calm Calm - N/A   Overcast
1:13 AM 36.5 °F - 28.9 °F 74% 30.19 in 10.0 mi Calm Calm - N/A   Scattered Clouds
1:33 AM 36.1 °F - 28.6 °F 74% 30.20 in 10.0 mi Calm Calm - N/A   Clear
1:53 AM 34.7 °F - 27.1 °F 74% 30.19 in 10.0 mi Calm Calm - N/A   Clear
2:12 AM 34.3 °F - 27.1 °F 75% 30.19 in 10.0 mi Calm Calm - N/A   Clear
2:33 AM 34.3 °F 30.2 °F 27.9 °F 77% 30.18 in 10.0 mi NNE 4.6 mph - N/A   Clear
2:52 AM 34.3 °F 30.2 °F 28.0 °F 78% 30.18 in 10.0 mi NNE 4.6 mph - N/A   Clear
3:13 AM 34.3 °F 29.2 °F 28.8 °F 80% 30.18 in 10.0 mi NNE 5.8 mph - N/A   Clear
3:33 AM 34.3 °F 29.2 °F 28.4 °F 79% 30.18 in 10.0 mi NE 5.8 mph - N/A   Clear
3:52 AM 34.3 °F 31.4 °F 28.4 °F 79% 30.19 in 10.0 mi NE 3.5 mph - N/A   Clear
4:13 AM 33.3 °F - 28.0 °F 81% 30.19 in 10.0 mi Calm Calm - N/A   Clear
4:33 AM 34.3 °F 30.2 °F 29.1 °F 81% 30.19 in 10.0 mi North 4.6 mph - N/A   Clear
4:52 AM 34.3 °F 31.4 °F 28.8 °F 80% 30.18 in 10.0 mi North 3.5 mph - N/A   Clear
5:13 AM 34.3 °F - 28.0 °F 78% 30.18 in 10.0 mi Calm Calm - N/A   Clear
5:32 AM 34.3 °F 31.4 °F 28.4 °F 79% 30.19 in 10.0 mi NE 3.5 mph - N/A   Clear
6:13 AM 34.3 °F 30.2 °F 28.4 °F 79% 30.18 in 10.0 mi NE 4.6 mph - N/A   Clear
6:33 AM 34.3 °F 29.2 °F 28.8 °F 80% 30.17 in 10.0 mi NE 5.8 mph - N/A   Clear
6:53 AM 34.3 °F 28.4 °F 29.1 °F 81% 30.17 in 10.0 mi NE 6.9 mph - N/A   Clear
7:13 AM 34.3 °F 30.2 °F 29.3 °F 82% 30.16 in 10.0 mi NE 4.6 mph - N/A   Clear
7:32 AM 34.3 °F 30.2 °F 29.3 °F 82% 30.18 in 10.0 mi NE 4.6 mph - N/A   Clear
7:53 AM 34.3 °F - 29.1 °F 81% 30.19 in 10.0 mi Calm Calm - N/A   Clear
8:12 AM 34.3 °F - 28.8 °F 80% 30.20 in 10.0 mi Calm Calm - N/A   Clear
8:33 AM 35.6 °F 30.7 °F 29.3 °F 78% 30.19 in 10.0 mi NE 5.8 mph - N/A   Clear
8:53 AM 36.9 °F 33.1 °F 29.7 °F 75% 30.19 in 10.0 mi NNE 4.6 mph - N/A   Scattered Clouds
9:13 AM 37.2 °F 33.6 °F 29.5 °F 74% 30.19 in 10.0 mi NNE 4.6 mph - N/A   Mostly Cloudy
9:32 AM 39.4 °F 34.5 °F 30.4 °F 70% 30.20 in 10.0 mi NE 6.9 mph - N/A   Mostly Cloudy
9:52 AM 39.4 °F 36.1 °F 30.0 °F 69% 30.19 in 10.0 mi NNE 4.6 mph - N/A   Overcast
10:13 AM 40.8 °F 36.9 °F 29.7 °F 64% 30.19 in 10.0 mi NNE 5.8 mph - N/A   Scattered Clouds
10:33 AM 42.8 °F 38.0 °F 29.1 °F 58% 30.19 in 10.0 mi ENE 8.1 mph - N/A   Clear
10:52 AM 44.6 °F 39.7 °F 28.9 °F 54% 30.20 in 10.0 mi ENE 9.2 mph - N/A   Clear
11:13 AM 45.1 °F 41.4 °F 28.6 °F 52% 30.20 in 10.0 mi ENE 6.9 mph - N/A   Clear
11:32 AM 46.2 °F 42.2 °F 29.5 °F 52% 30.19 in 10.0 mi NE 8.1 mph - N/A   Clear
11:53 AM 47.1 °F - 27.9 °F 47% 30.19 in 10.0 mi NE 6.9 mph - N/A   Clear
12:13 PM 48.9 °F - 28.6 °F 45% 30.18 in 10.0 mi NE 9.2 mph - N/A   Clear
12:32 PM 48.6 °F - 28.8 °F 46% 30.16 in 10.0 mi NNE 6.9 mph - N/A   Clear
12:53 PM 49.5 °F - 27.5 °F 43% 30.16 in 10.0 mi NE 10.4 mph - N/A   Clear
1:12 PM 49.5 °F - 28.4 °F 44% 30.15 in 10.0 mi NE 6.9 mph - N/A   Clear
1:33 PM 49.5 °F - 27.1 °F 42% 30.15 in 10.0 mi NNE 9.2 mph - N/A   Clear
1:53 PM 49.5 °F - 26.2 °F 40% 30.14 in 10.0 mi NNE 6.9 mph - N/A   Clear
2:13 PM 49.5 °F - 25.3 °F 39% 30.14 in 10.0 mi NE 6.9 mph - N/A   Clear
2:33 PM 49.5 °F - 25.9 °F 40% 30.13 in 10.0 mi North 8.1 mph - N/A   Clear
2:52 PM 48.6 °F - 25.3 °F 40% 30.13 in 10.0 mi NNE 6.9 mph - N/A   Clear
3:13 PM 49.5 °F - 26.1 °F 40% 30.15 in 10.0 mi NE 5.8 mph - N/A   Clear
3:32 PM 46.9 °F - 23.9 °F 40% 30.14 in 10.0 mi NNE 8.1 mph - N/A   Clear
3:53 PM 46.9 °F - 25.0 °F 42% 30.14 in 10.0 mi NNE 8.1 mph - N/A   Clear
4:13 PM 46.2 °F 43.3 °F 25.3 °F 44% 30.15 in 10.0 mi North 5.8 mph - N/A   Clear
4:33 PM 45.5 °F 42.5 °F 24.3 °F 43% 30.15 in 10.0 mi NNE 5.8 mph - N/A   Clear
5:13 PM 43.2 °F 40.5 °F 23.9 °F 47% 30.15 in 10.0 mi North 4.6 mph - N/A   Clear
5:32 PM 42.8 °F 41.1 °F 24.3 °F 48% 30.15 in 10.0 mi North 3.5 mph - N/A   Clear
5:53 PM 41.7 °F 39.8 °F 25.2 °F 52% 30.15 in 10.0 mi North 3.5 mph - N/A   Clear
6:12 PM 40.8 °F - 24.8 °F 53% 30.15 in 10.0 mi Calm Calm - N/A   Clear
6:33 PM 40.6 °F 38.6 °F 25.5 °F 55% 30.15 in 10.0 mi North 3.5 mph - N/A   Clear
6:53 PM 39.4 °F 36.1 °F 25.2 °F 57% 30.16 in 10.0 mi NNW 4.6 mph - N/A   Clear
7:13 PM 37.4 °F 33.8 °F 24.6 °F 60% 30.15 in 10.0 mi North 4.6 mph - N/A   Clear
7:32 PM 36.9 °F 33.1 °F 25.3 °F 63% 30.15 in 10.0 mi NNW 4.6 mph - N/A   Clear
7:53 PM 36.9 °F - 24.8 °F 62% 30.15 in 10.0 mi Calm Calm - N/A   Clear
8:12 PM 37.2 °F - 24.6 °F 60% 30.15 in 10.0 mi Calm Calm - N/A   Clear
8:32 PM 36.9 °F - 24.8 °F 62% 30.15 in 10.0 mi Calm Calm - N/A   Clear
8:53 PM 36.9 °F - 25.7 °F 64% 30.15 in 10.0 mi Calm Calm - N/A   Clear
9:13 PM 36.9 °F - 24.8 °F 62% 30.15 in 10.0 mi Calm Calm - N/A   Clear
9:32 PM 35.8 °F - 25.0 °F 65% 30.16 in 10.0 mi Calm Calm - N/A   Clear
9:53 PM 35.6 °F - 25.7 °F 67% 30.15 in 10.0 mi Calm Calm - N/A   Clear
10:13 PM 34.3 °F - 25.7 °F 71% 30.15 in 10.0 mi Calm Calm - N/A   Clear
10:32 PM 34.3 °F - 27.0 °F 74% 30.15 in 10.0 mi Calm Calm - N/A   Clear
10:53 PM 34.3 °F - 26.8 °F 74% 30.16 in 10.0 mi Calm Calm - N/A   Clear
11:13 PM 34.3 °F - 27.5 °F 76% 30.15 in 10.0 mi Calm Calm - N/A   Clear
11:32 PM 34.3 °F - 27.5 °F 76% 30.15 in 10.0 mi Calm Calm - N/A   Clear
11:53 PM 34.3 °F 30.2 °F 28.0 °F 78% 30.15 in 10.0 mi NW 4.6 mph - N/A   Clear